Lumberton, NC

1:50 PM EDT on April 21, 2018 (GMT -0400)
Lumberton Municipal

Weather History for KLBT - May, 2012

Change the Weather History Date:

Saturday, May 12, 2012

  Actual Average Record
Temperature  
Mean Temperature 65 °F 69 °F  
Max Temperature 81 °F 81 °F 97 °F (2000)
Min Temperature 49 °F 56 °F 47 °F (2006)
Degree Days  
Heating Degree Days 0 1  
Month to date heating degree days 0 22  
Since 1 July heating degree days 2136 2751  
Cooling Degree Days 0 5  
Month to date cooling degree days 81 47  
Year to date cooling degree days 223 115  
Growing Degree Days 15 (Base 50)    
Moisture  
Dew Point 50 °F    
Average Humidity 63    
Maximum Humidity 100    
Minimum Humidity 25    
Precipitation  
Precipitation 0.00 in 0.09 in 1.03 in (2007)
Month to date precipitation 0.78 0.91  
Year to date precipitation 12.23 12.93  
Sea Level Pressure  
Sea Level Pressure 30.28 in    
Wind  
Wind Speed 2 mph (SSE)    
Max Wind Speed 10 mph    
Max Gust Speed 14 mph    
Visibility 9 miles    
Events      
T = Trace of Precipitation, MM = Missing Value Source: NWS Daily Summary

Daily Weather History Graph

Daily Weather History Graph

Search for Another Location

Airport or City:

Astronomy

May. 12, 2012 Rise Set
Actual Time 6:15 AM EDT 8:10 PM EDT
Civil Twilight 5:47 AM EDT 8:37 PM EDT
Nautical Twilight 5:14 AM EDT 9:11 PM EDT
Astronomical Twilight 4:38 AM EDT 9:47 PM EDT
Moon 1:27 AM EDT (5/12) 12:46 PM EDT (5/12)
Length of Visible Light 14h 50m
Length of Day
13h 54m
Waning Gibbous, 53% of the Moon is Illuminated
May 12
Waning Gibbous
May 12
Last Quarter
May 20
New
May 28
First Quarter
Jun 4
Full

Hourly Weather History & Observations

Time (EDT) Temp. Dew Point Humidity Pressure Visibility Wind Dir Wind Speed Gust Speed Precip Events Conditions
12:54 AM 53.1 °F 51.1 °F 93% 30.24 in 10.0 mi Calm Calm - N/A   Clear
1:54 AM 52.0 °F 51.1 °F 97% 30.23 in 8.0 mi Calm Calm - N/A   Clear
2:54 AM 51.1 °F 50.0 °F 96% 30.24 in 9.0 mi Calm Calm - N/A   Clear
3:54 AM 52.0 °F 51.1 °F 97% 30.25 in 7.0 mi Calm Calm - N/A   Clear
4:54 AM 51.1 °F 48.9 °F 92% 30.26 in 8.0 mi Calm Calm - N/A   Clear
5:54 AM 50.0 °F 48.9 °F 96% 30.27 in 8.0 mi Calm Calm - N/A   Clear
6:54 AM 51.1 °F 50.0 °F 96% 30.29 in 6.0 mi Calm Calm - N/A   Clear
7:54 AM 59.0 °F 55.0 °F 87% 30.32 in 8.0 mi Calm Calm - N/A   Clear
8:54 AM 66.0 °F 55.9 °F 70% 30.34 in 10.0 mi Calm Calm - N/A   Clear
9:54 AM 72.0 °F 55.0 °F 55% 30.34 in 10.0 mi SSE 3.5 mph - N/A   Clear
10:54 AM 75.0 °F 51.1 °F 43% 30.35 in 10.0 mi Variable 3.5 mph - N/A   Clear
11:54 AM 75.9 °F 43.0 °F 31% 30.34 in 10.0 mi Variable 3.5 mph - N/A   Clear
12:54 PM 78.1 °F 39.9 °F 25% 30.33 in 10.0 mi ENE 5.8 mph - N/A   Clear
1:54 PM 79.0 °F 41.0 °F 26% 30.32 in 10.0 mi Variable 3.5 mph - N/A   Clear
2:54 PM 80.1 °F 43.0 °F 27% 30.29 in 10.0 mi Variable 5.8 mph - N/A   Clear
3:54 PM 79.0 °F 42.1 °F 27% 30.27 in 10.0 mi SSE 8.1 mph - N/A   Clear
4:54 PM 78.1 °F 44.1 °F 30% 30.25 in 10.0 mi Variable 3.5 mph - N/A   Clear
5:54 PM 77.0 °F 45.0 °F 32% 30.25 in 10.0 mi Calm Calm - N/A   Clear
6:54 PM 73.9 °F 50.0 °F 43% 30.24 in 10.0 mi SSE 4.6 mph - N/A   Clear
7:54 PM 72.0 °F 54.0 °F 53% 30.25 in 10.0 mi SSW 6.9 mph - N/A   Clear
8:54 PM 69.1 °F 55.0 °F 61% 30.26 in 10.0 mi Calm Calm - N/A   Clear
9:54 PM 66.9 °F 57.0 °F 70% 30.28 in 10.0 mi Calm Calm - N/A   Clear
10:54 PM 66.0 °F 59.0 °F 78% 30.29 in 10.0 mi Calm Calm - N/A   Clear
11:54 PM 63.0 °F 57.9 °F 84% 30.28 in 10.0 mi Calm Calm - N/A   Clear